CZ-6A DEB, 60844

Orbit data source: Space-Track

CZ-6A DEB, 60844 is space debris in LEO originally from a launch on Tue, 06 Aug 2024 UTC launched from the Taiyaun Space Center, China (TSC). Debris objects in space refer to the collection of defunct objects orbiting the Earth. Examples of debris include non-operational satellites, rocket bodies, and fragments generated from explosions, collisions, or faulty payload assembly.

Loading next visibility...
Identifier
60844, 2024-140HX
Orbit
LEO
Country
Flag of CNCN / PRC
Related business
Manufacturer
SAST
Mission
Spacecraft
Bus & Motor
Unknown
Mass
Unknown
Launch date (UTC)
2024-08-06 (2 years ago)
Launch vehicle
Unknown
Launch site
Taiyaun Space Center, China (TSC)
Object type
Payload
Rocket body
Debris
Shape & HBR
Unknown shape, 0.1 m
Radar Cross Section
Small (<0.1 m²)

Expand to show TLE details & history
Last TLE update: 2 days ago

TLE from 2 days ago
0 CZ-6A DEB
1 60844U 24140HX  26170.15614295  .00000268  00000-0  82649-4 0  9991
2 60844  88.6116 240.3598 0092330 231.1634 128.1298 14.36137279 96933
Epoch: 2026-06-19T03:44Z
TLE epoch observation values (Epoch: 2026-06-19T03:44:50.750Z)
Latitude
-0.00008°
Longitude
-83.24083°
Altitude
815.505 km
Speed
7.424 km/s
True Right ascension
16h 01m 26s
True Declination
0° 00' 00"
Sunlit
Object was in full shadow at epoch
Visualization orbit readout
Latitude
Unknown
Longitude
Unknown
Altitude
Unknown
Speed
Unknown
Apparent Right ascension
Unknown
Apparent Declination
Unknown
Sunlit
N/A
Visualization observer readout
Local Sidereal Time
07:13:05
Azimuth
Unknown
Elevation
Unknown
Doppler factor
Unknown
Orbital elements
Apogee altitude
834.202 km
Perigee altitude
702.237 km
Semi-major axis
7,146.357 km
Eccentricity
0.00923
Inclination
88.6116°
RAAN
240.3598°
Arg. of periapsis
231.1634°
True anomaly
128.95614°
Mean anomaly
128.1298°
Eccentric anomaly
128.54356°
Mean motion
3.59266 °/min
Orbital period
100.2 mins
BSTAR
0.000082649
Loading maneuver chart data...
Computing Atmospheric mass density...
Loading historical data...
Loading historical data...
Loading historical data...
Loading historical data...
Loading historical data...
Loading historical data...
Loading historical data...

Documentation

Showing up to 5 results
|